AirNav   Air Wisconsin pilot careers
 
 634 users online  

OK12 Jones Farm Field Airport
Walters, Oklahoma, USA

GOING TO WALTERS?


FAA INFORMATION EFFECTIVE 16 AUGUST 2018

Location

FAA Identifier: OK12
Lat/Long: 34-23-57.0000N / 098-15-59.0000W
34-23.950000N / 098-15.983333W
34.3991667 / -98.2663889
(estimated)
Elevation: 1042 ft. / 318 m (estimated)
From city: 3 miles NE of WALTERS, OK
Time zone: UTC -5 (UTC -6 during Standard Time)
Zip code: 73572

Airport Operations

Airport use: Private use. Permission required prior to landing
Activation date: 03/2009
Control tower: no
ARTCC: FORT WORTH CENTER
FSS: MC ALESTER FLIGHT SERVICE STATION
Attendance: UNATNDD
Segmented circle: no
Lights: NON STD LIGHTING AVAIL UPON RQ.

Airport Communications

WX ASOS at LAW (13 nm NW): PHONE 580-581-1351
WX AWOS-3 at DUC (16 nm E): 119.075 (580-252-4547)

Nearby radio navigation aids

VOR radial/distance  VOR name  Freq  Var
LAWr120/9.3LAWTON VOR/DME109.4009E
SPSr023/29.6WICHITA FALLS VORTAC112.7010E

 
NDB name  Hdg/Dist  Freq  Var  ID
POST144/14.342508EPFL .--. ..-. .-..
TRAIL155/23.938809EOFZ --- ..-. --..
SCOTLAND012/38.634405ESKB ... -.- -...

Airport Services

Runway Information

Runway 17/35

Dimensions: 2130 x 75 ft. / 649 x 23 m
Surface: turf
RUNWAY 17  RUNWAY 35
Traffic pattern: leftleft

Airport Ownership and Management from official FAA records

Ownership: Privately-owned
Owner: RONALD C. JONES
180437 N 2650 RD.
WALTERS, OK 73572
Phone 580-875-3970
Manager: RONALD C. JONES
180437 N 2650 RD.
WALTERS, OK 73572
Phone 580-875-3970

Airport Operational Statistics

Aircraft based on the field: 1
Single engine airplanes: 1
    

Additional Remarks

OWNER DESIRES ARPT NOT BE CHARTED.

Instrument Procedures

There are no published instrument procedures at OK12.

Some nearby airports with instrument procedures:

KLAW - Lawton-Fort Sill Regional Airport (13 nm NW)
KDUC - Halliburton Field Airport (16 nm E)
KFSI - Henry Post Army Airfield (Fort Sill) (16 nm NW)
KSPS - Sheppard Air Force Base/Wichita Falls Municipal Airport (27 nm SW)
F14 - Wichita Valley Airport (32 nm SW)
 
Loc | Ops | Rwys | IFR | FBO | Links
Com | Nav | Svcs | Stats | Notes


 
Aerial photo
WARNING: Photo may not be current or correct
Aerial photo of OK12 (Jones Farm Field Airport)
Photo taken 12-Jul-2017
looking north.

Do you have a better or more recent aerial photo of Jones Farm Field Airport that you would like to share? If so, please send us your photo.

 
Sectional chart

 
Airport distance calculator
Flying to Jones Farm Field Airport? Find the distance to fly.

From to OK12

Sunrise and sunset
Times for 20-Aug-2018
 Local
(UTC-5)
 Zulu
(UTC)
Morning civil twilight06:3211:32
Sunrise06:5911:59
Sunset20:1401:14
Evening civil twilight20:4001:40

Current date and time
Zulu (UTC)  21-Aug-2018 04:11:03
Local (UTC-5)  20-Aug-2018 23:11:03
 
METAR
KLAW 
12nm NW 
210353Z AUTO 30003KT 9SM CLR 21/18 A3007 RMK AO2 SLP173 T02110178
KDUC 
15nm E 
210355Z AUTO 36004KT 10SM CLR 22/18 A3008 RMK AO2 T02200182
KFSI 
16nm NW 
210356Z AUTO 30003KT 10SM CLR 23/18 A3006 RMK AO2 SLP172 T02260177
TAF
KLAW 
12nm NW 
201720Z 2018/2118 33013KT P6SM FEW120 FM210000 02006KT P6SM SKC
KFSI 
16nm NW 
202248Z 2022/2203 33012G18KT 9999 FEW150 QNH2999INS BECMG 2101/2102 02006KT 9999 SKC QNH3001INS BECMG 2114/2115 10009KT 9999 SCT080 QNH3003INS TX34/2120Z TN18/2112Z LAST NO AMDS AFT 2023 NEXT 2113
NOTAMs
Click for the latest NOTAMs
NOTAMs are issued by the DoD/FAA and will open in a separate window not controlled by AirNav.

 

 
 

Would you like to see your business listed on this page?

 If your business provides an interesting product or service to pilots, flight crews, aircraft, or users of the Jones Farm Field Airport, you should consider listing it here.  To start the listing process, click on the button below
 
Add a business
 

Other Pages about Jones Farm Field Airport

Update a link
 
Copyright © AirNav, LLC. All rights reserved. Privacy Policy  Contact